Time,TemperatureF,DewpointF,PressureIn,WindDirection,WindDirectionDegrees,WindSpeedMPH,WindSpeedGustMPH,Humidity,HourlyPrecipIn,Conditions,Clouds,dailyrainin,SoftwareType,DateUTC
2013-08-31 00:00:00,70.9,69.1,29.97,North,353,0.0,0.0,94,0.00,,---,0.00,VWS V14.01,2013-08-31 04:00:00,
2013-08-31 00:01:00,70.9,69.1,29.97,North,353,0.0,0.0,94,0.00,,---,0.00,VWS V14.01,2013-08-31 04:01:00,
2013-08-31 00:02:00,70.9,69.1,29.97,North,353,0.0,0.0,94,0.00,,---,0.00,VWS V14.01,2013-08-31 04:02:00,
2013-08-31 00:07:00,70.9,69.1,29.97,North,353,0.0,0.0,94,0.00,,---,0.00,VWS V14.01,2013-08-31 04:07:00,
2013-08-31 00:12:00,70.9,69.1,29.97,North,353,0.0,0.0,94,0.00,,---,0.00,VWS V14.01,2013-08-31 04:12:00,
2013-08-31 00:17:00,70.9,69.1,29.97,North,353,0.0,0.0,94,0.00,,---,0.00,VWS V14.01,2013-08-31 04:17:00,
2013-08-31 00:22:00,71.1,69.2,29.97,North,353,0.0,0.0,94,0.00,,---,0.00,VWS V14.01,2013-08-31 04:22:00,
2013-08-31 00:27:00,71.2,69.1,29.97,North,353,0.0,0.0,93,0.00,,---,0.00,VWS V14.01,2013-08-31 04:27:00,
2013-08-31 00:32:00,71.4,69.3,29.97,North,353,0.0,0.0,93,0.00,,---,0.00,VWS V14.01,2013-08-31 04:32:00,
2013-08-31 00:37:00,71.4,69.3,29.97,North,353,0.0,0.0,93,0.00,,---,0.00,VWS V14.01,2013-08-31 04:37:00,
2013-08-31 00:42:00,71.4,69.3,29.97,North,353,0.0,0.0,93,0.00,,---,0.00,VWS V14.01,2013-08-31 04:42:00,
2013-08-31 00:47:00,71.4,69.3,29.97,North,353,0.0,0.0,93,0.00,,---,0.00,VWS V14.01,2013-08-31 04:47:00,
2013-08-31 00:52:00,71.4,69.3,29.97,North,353,0.0,0.0,93,0.00,,---,0.00,VWS V14.01,2013-08-31 04:52:00,
2013-08-31 00:57:00,71.4,69.3,29.97,North,353,0.0,0.0,93,0.00,,---,0.00,VWS V14.01,2013-08-31 04:57:00,
2013-08-31 01:02:00,71.2,69.1,29.97,North,353,0.0,0.0,93,0.00,,---,0.00,VWS V14.01,2013-08-31 05:02:00,
2013-08-31 01:07:00,71.2,68.8,29.97,North,353,0.0,0.0,92,0.00,,---,0.00,VWS V14.01,2013-08-31 05:07:00,
2013-08-31 01:12:00,71.4,69.0,29.97,North,353,0.0,0.0,92,0.00,,---,0.00,VWS V14.01,2013-08-31 05:12:00,
2013-08-31 01:17:00,71.4,69.0,29.97,North,353,0.0,0.0,92,0.00,,---,0.00,VWS V14.01,2013-08-31 05:17:00,
2013-08-31 01:22:00,71.4,68.7,29.97,North,353,0.0,0.0,91,0.00,,---,0.00,VWS V14.01,2013-08-31 05:22:00,
2013-08-31 01:27:00,71.6,68.8,29.97,North,353,0.0,0.0,91,0.00,,---,0.00,VWS V14.01,2013-08-31 05:27:00,
2013-08-31 01:32:00,71.6,68.5,29.97,North,353,0.0,0.0,90,0.00,,---,0.00,VWS V14.01,2013-08-31 05:32:00,
2013-08-31 01:37:00,71.6,68.5,29.97,North,353,0.0,0.0,90,0.00,,---,0.00,VWS V14.01,2013-08-31 05:37:00,
2013-08-31 01:42:00,71.6,68.5,29.97,North,353,0.0,0.0,90,0.00,,---,0.00,VWS V14.01,2013-08-31 05:42:00,
2013-08-31 01:47:00,71.4,68.3,29.97,North,353,0.0,0.0,90,0.00,,---,0.00,VWS V14.01,2013-08-31 05:47:00,
2013-08-31 01:52:00,71.6,68.5,29.97,North,353,0.0,0.0,90,0.00,,---,0.00,VWS V14.01,2013-08-31 05:52:00,
2013-08-31 01:57:00,71.4,68.3,29.97,North,353,0.0,0.0,90,0.00,,---,0.00,VWS V14.01,2013-08-31 05:57:00,
2013-08-31 02:02:00,71.4,68.3,29.97,North,353,0.0,0.0,90,0.00,,---,0.00,VWS V14.01,2013-08-31 06:02:00,
2013-08-31 02:07:00,71.1,68.0,29.97,North,353,0.0,0.0,90,0.00,,---,0.00,VWS V14.01,2013-08-31 06:07:00,
2013-08-31 02:12:00,71.1,68.0,29.97,North,353,0.0,0.0,90,0.00,,---,0.00,VWS V14.01,2013-08-31 06:12:00,
2013-08-31 02:17:00,70.9,67.8,29.97,North,353,0.0,0.0,90,0.00,,---,0.00,VWS V14.01,2013-08-31 06:17:00,
2013-08-31 02:22:00,70.7,67.6,29.97,North,353,0.0,0.0,90,0.00,,---,0.00,VWS V14.01,2013-08-31 06:22:00,
2013-08-31 02:27:00,70.7,67.6,29.97,North,353,0.0,0.0,90,0.00,,---,0.00,VWS V14.01,2013-08-31 06:27:00,
2013-08-31 02:32:00,70.5,67.4,29.97,North,353,0.0,0.0,90,0.00,,---,0.00,VWS V14.01,2013-08-31 06:32:00,
2013-08-31 02:37:00,70.3,67.6,29.97,North,353,0.0,0.0,91,0.00,,---,0.00,VWS V14.01,2013-08-31 06:37:00,
2013-08-31 02:42:00,70.2,67.4,29.97,North,353,0.0,0.0,91,0.00,,---,0.00,VWS V14.01,2013-08-31 06:42:00,
2013-08-31 02:47:00,70.0,67.2,29.97,North,353,0.0,0.0,91,0.00,,---,0.00,VWS V14.01,2013-08-31 06:47:00,
2013-08-31 02:52:00,69.8,67.1,29.97,North,353,0.0,0.0,91,0.00,,---,0.00,VWS V14.01,2013-08-31 06:52:00,
2013-08-31 02:57:00,69.8,67.1,29.97,North,353,0.0,0.0,91,0.00,,---,0.00,VWS V14.01,2013-08-31 06:57:00,
2013-08-31 03:02:00,69.6,67.2,29.97,North,353,0.0,0.0,92,0.00,,---,0.00,VWS V14.01,2013-08-31 07:02:00,
2013-08-31 03:07:00,69.6,67.2,29.97,North,353,0.0,0.0,92,0.00,,---,0.00,VWS V14.01,2013-08-31 07:07:00,
2013-08-31 03:12:00,69.6,67.2,29.97,North,353,0.0,0.0,92,0.00,,---,0.00,VWS V14.01,2013-08-31 07:12:00,
2013-08-31 03:17:00,69.4,67.0,29.97,North,353,0.0,0.0,92,0.00,,---,0.00,VWS V14.01,2013-08-31 07:17:00,
2013-08-31 03:22:00,69.4,67.0,29.97,North,353,0.0,0.0,92,0.00,,---,0.00,VWS V14.01,2013-08-31 07:22:00,
2013-08-31 03:27:00,69.3,66.8,29.97,North,353,0.0,0.0,92,0.00,,---,0.00,VWS V14.01,2013-08-31 07:27:00,
2013-08-31 03:32:00,69.3,67.2,29.97,North,353,0.0,0.0,93,0.00,,---,0.00,VWS V14.01,2013-08-31 07:32:00,
2013-08-31 03:37:00,69.1,67.0,29.97,North,353,0.0,0.0,93,0.00,,---,0.00,VWS V14.01,2013-08-31 07:37:00,
2013-08-31 03:42:00,69.1,67.0,29.97,North,353,0.0,0.0,93,0.00,,---,0.00,VWS V14.01,2013-08-31 07:42:00,
2013-08-31 03:47:00,68.9,66.8,29.97,North,353,0.0,0.0,93,0.00,,---,0.00,VWS V14.01,2013-08-31 07:47:00,
2013-08-31 03:52:00,68.9,66.8,29.97,North,353,0.0,0.0,93,0.00,,---,0.00,VWS V14.01,2013-08-31 07:52:00,
2013-08-31 03:57:00,68.7,66.6,29.97,North,353,0.0,0.0,93,0.00,,---,0.00,VWS V14.01,2013-08-31 07:57:00,
2013-08-31 04:02:00,68.7,66.6,29.97,North,353,0.0,0.0,93,0.00,,---,0.00,VWS V14.01,2013-08-31 08:02:00,
2013-08-31 04:07:00,68.5,66.4,29.97,North,353,0.0,0.0,93,0.00,,---,0.00,VWS V14.01,2013-08-31 08:07:00,
2013-08-31 04:12:00,68.5,66.8,29.97,North,353,0.0,0.0,94,0.00,,---,0.00,VWS V14.01,2013-08-31 08:12:00,
2013-08-31 04:17:00,68.5,66.8,29.97,North,353,0.0,0.0,94,0.00,,---,0.00,VWS V14.01,2013-08-31 08:17:00,
2013-08-31 04:22:00,68.4,66.6,29.97,North,353,0.0,0.0,94,0.00,,---,0.00,VWS V14.01,2013-08-31 08:22:00,
2013-08-31 04:27:00,68.4,66.6,29.97,North,353,0.0,0.0,94,0.00,,---,0.00,VWS V14.01,2013-08-31 08:27:00,
2013-08-31 04:32:00,68.4,66.6,29.97,North,353,0.0,0.0,94,0.00,,---,0.00,VWS V14.01,2013-08-31 08:32:00,
2013-08-31 04:37:00,68.4,66.6,29.97,North,353,0.0,0.0,94,0.00,,---,0.00,VWS V14.01,2013-08-31 08:37:00,
2013-08-31 04:42:00,68.2,66.4,29.94,North,353,0.0,0.0,94,0.00,,---,0.00,VWS V14.01,2013-08-31 08:42:00,
2013-08-31 04:47:00,68.2,66.4,29.94,North,353,0.0,0.0,94,0.00,,---,0.00,VWS V14.01,2013-08-31 08:47:00,
2013-08-31 04:52:00,68.0,66.2,29.94,North,353,0.0,0.0,94,0.00,,---,0.00,VWS V14.01,2013-08-31 08:52:00,
2013-08-31 04:57:00,68.0,66.2,29.97,North,353,0.0,0.0,94,0.00,,---,0.00,VWS V14.01,2013-08-31 08:57:00,
2013-08-31 05:02:00,67.8,66.3,29.97,North,353,0.0,0.0,95,0.00,,---,0.00,VWS V14.01,2013-08-31 09:02:00,
2013-08-31 05:07:00,67.8,66.3,29.97,North,353,0.0,0.0,95,0.00,,---,0.00,VWS V14.01,2013-08-31 09:07:00,
2013-08-31 05:12:00,67.8,66.3,29.97,North,353,0.0,0.0,95,0.00,,---,0.00,VWS V14.01,2013-08-31 09:12:00,
2013-08-31 05:17:00,67.8,66.3,29.97,North,353,0.0,0.0,95,0.00,,---,0.00,VWS V14.01,2013-08-31 09:17:00,
2013-08-31 05:22:00,67.6,66.2,29.97,North,353,0.0,0.0,95,0.00,,---,0.00,VWS V14.01,2013-08-31 09:22:00,
2013-08-31 05:27:00,67.6,66.2,29.97,North,353,0.0,0.0,95,0.00,,---,0.00,VWS V14.01,2013-08-31 09:27:00,
2013-08-31 05:32:00,67.6,66.2,29.97,North,353,0.0,0.0,95,0.00,,---,0.00,VWS V14.01,2013-08-31 09:32:00,
2013-08-31 05:37:00,67.6,66.2,29.97,North,353,0.0,0.0,95,0.00,,---,0.00,VWS V14.01,2013-08-31 09:37:00,
2013-08-31 05:42:00,67.6,66.2,29.97,North,353,0.0,0.0,95,0.00,,---,0.00,VWS V14.01,2013-08-31 09:42:00,
2013-08-31 05:47:00,67.6,66.2,29.94,North,353,0.0,0.0,95,0.00,,---,0.00,VWS V14.01,2013-08-31 09:47:00,
2013-08-31 05:52:00,67.6,66.2,29.94,North,353,0.0,0.0,95,0.00,,---,0.12,VWS V14.01,2013-08-31 09:52:00,
2013-08-31 05:57:00,67.6,66.2,29.94,North,353,0.0,0.0,95,0.00,,---,0.00,VWS V14.01,2013-08-31 09:57:00,
2013-08-31 06:02:00,67.6,66.2,29.94,North,353,0.0,0.0,95,0.00,,---,0.00,VWS V14.01,2013-08-31 10:02:00,
2013-08-31 06:07:00,67.6,66.2,29.94,North,353,0.0,0.0,95,0.00,,---,0.00,VWS V14.01,2013-08-31 10:07:00,
2013-08-31 06:12:00,67.6,66.2,29.97,North,353,0.0,0.0,95,0.00,,---,0.00,VWS V14.01,2013-08-31 10:12:00,
2013-08-31 06:17:00,67.6,66.2,29.97,North,353,0.0,0.0,95,0.00,,---,0.00,VWS V14.01,2013-08-31 10:17:00,
2013-08-31 06:22:00,67.5,66.0,29.97,North,353,0.0,0.0,95,0.00,,---,0.00,VWS V14.01,2013-08-31 10:22:00,
2013-08-31 06:27:00,67.5,66.0,29.97,North,353,0.0,0.0,95,0.00,,---,0.00,VWS V14.01,2013-08-31 10:27:00,
2013-08-31 06:32:00,67.5,66.0,29.97,North,353,0.0,0.0,95,0.00,,---,0.00,VWS V14.01,2013-08-31 10:32:00,
2013-08-31 06:37:00,67.5,66.0,29.97,North,353,0.0,0.0,95,0.00,,---,0.00,VWS V14.01,2013-08-31 10:37:00,
2013-08-31 06:42:00,67.5,66.0,29.97,North,353,0.0,0.0,95,0.00,,---,0.00,VWS V14.01,2013-08-31 10:42:00,
2013-08-31 06:47:00,67.5,66.0,29.97,North,353,0.0,0.0,95,0.00,,---,0.00,VWS V14.01,2013-08-31 10:47:00,
2013-08-31 06:52:00,67.5,66.0,29.97,North,353,0.0,0.0,95,0.00,,---,0.00,VWS V14.01,2013-08-31 10:52:00,
2013-08-31 06:57:00,67.5,66.0,29.97,North,353,0.0,0.0,95,0.00,,---,0.00,VWS V14.01,2013-08-31 10:57:00,
2013-08-31 07:02:00,67.5,66.0,29.97,North,353,0.0,0.0,95,0.00,,---,0.00,VWS V14.01,2013-08-31 11:02:00,
2013-08-31 07:07:00,67.5,66.0,29.97,North,353,0.0,0.0,95,0.00,,---,0.00,VWS V14.01,2013-08-31 11:07:00,
2013-08-31 07:12:00,67.5,66.0,29.97,North,353,0.0,0.0,95,0.00,,---,0.00,VWS V14.01,2013-08-31 11:12:00,
2013-08-31 07:17:00,67.5,66.0,29.97,North,353,0.0,0.0,95,0.00,,---,0.00,VWS V14.01,2013-08-31 11:17:00,
2013-08-31 07:22:00,67.5,66.0,29.97,North,353,0.0,0.0,95,0.00,,---,0.00,VWS V14.01,2013-08-31 11:22:00,
2013-08-31 07:27:00,67.5,66.0,29.97,North,353,0.0,0.0,95,0.00,,---,0.00,VWS V14.01,2013-08-31 11:27:00,
2013-08-31 07:32:00,67.5,66.0,29.97,North,353,0.0,0.0,95,0.00,,---,0.00,VWS V14.01,2013-08-31 11:32:00,
2013-08-31 07:37:00,67.6,66.2,29.97,North,353,0.0,0.0,95,0.00,,---,0.00,VWS V14.01,2013-08-31 11:37:00,
2013-08-31 07:42:00,67.6,66.2,29.97,North,353,0.0,0.0,95,0.00,,---,0.00,VWS V14.01,2013-08-31 11:42:00,
2013-08-31 07:47:00,67.8,66.3,29.97,North,353,0.0,0.0,95,0.00,,---,0.00,VWS V14.01,2013-08-31 11:47:00,
2013-08-31 07:52:00,68.0,66.5,29.97,North,353,0.0,0.0,95,0.00,,---,0.00,VWS V14.01,2013-08-31 11:52:00,
2013-08-31 07:57:00,68.0,66.5,29.97,North,353,0.0,0.0,95,0.00,,---,0.00,VWS V14.01,2013-08-31 11:57:00,
2013-08-31 08:02:00,68.2,66.7,29.97,North,353,0.0,0.0,95,0.00,,---,0.00,VWS V14.01,2013-08-31 12:02:00,
2013-08-31 08:07:00,68.2,66.7,29.97,North,353,0.0,0.0,95,0.00,,---,0.00,VWS V14.01,2013-08-31 12:07:00,
2013-08-31 08:12:00,68.4,66.9,29.97,North,353,0.0,0.0,95,0.00,,---,0.00,VWS V14.01,2013-08-31 12:12:00,
2013-08-31 08:17:00,68.7,67.2,29.97,North,353,0.0,0.0,95,0.00,,---,0.00,VWS V14.01,2013-08-31 12:17:00,
2013-08-31 08:22:00,68.9,67.4,29.97,North,353,0.0,0.0,95,0.00,,---,0.00,VWS V14.01,2013-08-31 12:22:00,
2013-08-31 08:27:00,69.1,67.6,29.97,North,353,0.0,0.0,95,0.00,,---,0.00,VWS V14.01,2013-08-31 12:27:00,
2013-08-31 08:32:00,69.3,67.8,29.97,North,353,0.0,0.0,95,0.00,,---,0.00,VWS V14.01,2013-08-31 12:32:00,
2013-08-31 08:37:00,69.4,67.9,29.97,NW,322,0.0,0.0,95,0.00,,---,0.00,VWS V14.01,2013-08-31 12:37:00,
2013-08-31 08:41:00,69.6,68.1,29.97,NW,322,0.0,0.0,95,0.00,,---,0.00,VWS V14.01,2013-08-31 12:41:00,
2013-08-31 08:46:00,69.8,68.3,29.97,NW,322,0.0,0.0,95,0.00,,---,0.00,VWS V14.01,2013-08-31 12:46:00,
2013-08-31 08:51:00,70.2,68.4,29.97,NW,322,0.0,0.0,94,0.00,,---,0.00,VWS V14.01,2013-08-31 12:51:00,
2013-08-31 08:56:00,70.3,68.5,29.97,NW,322,0.0,0.0,94,0.00,,---,0.00,VWS V14.01,2013-08-31 12:56:00,
2013-08-31 09:01:00,70.7,68.9,29.97,ENE,65,0.0,0.0,94,0.00,,---,0.00,VWS V14.01,2013-08-31 13:01:00,
2013-08-31 09:06:00,70.9,69.1,29.97,ENE,65,0.0,0.0,94,0.00,,---,0.00,VWS V14.01,2013-08-31 13:06:00,
2013-08-31 09:11:00,71.2,69.4,29.97,NE,55,0.0,0.0,94,0.00,,---,0.00,VWS V14.01,2013-08-31 13:11:00,
2013-08-31 09:16:00,71.6,69.8,29.97,South,189,0.0,0.0,94,0.00,,---,0.00,VWS V14.01,2013-08-31 13:16:00,
2013-08-31 09:21:00,72.0,70.1,29.97,NNW,331,0.0,0.0,94,0.00,,---,0.00,VWS V14.01,2013-08-31 13:21:00,
2013-08-31 09:26:00,72.3,70.5,29.97,NNW,331,0.0,0.0,94,0.00,,---,0.00,VWS V14.01,2013-08-31 13:26:00,
2013-08-31 09:31:00,72.5,70.7,29.97,NNW,331,0.0,0.0,94,0.00,,---,0.00,VWS V14.01,2013-08-31 13:31:00,
2013-08-31 09:36:00,72.9,71.0,29.97,NW,318,0.0,0.0,94,0.00,,---,0.00,VWS V14.01,2013-08-31 13:36:00,
2013-08-31 09:41:00,73.4,71.3,29.97,NW,318,0.0,0.0,93,0.00,,---,0.00,VWS V14.01,2013-08-31 13:41:00,
2013-08-31 09:46:00,73.9,71.8,29.97,SW,214,0.0,0.0,93,0.00,,---,0.00,VWS V14.01,2013-08-31 13:46:00,
2013-08-31 09:51:00,74.5,72.0,29.97,SW,214,0.0,0.0,92,0.00,,---,0.00,VWS V14.01,2013-08-31 13:51:00,
2013-08-31 09:56:00,74.8,72.4,29.97,NW,307,0.0,0.0,92,0.00,,---,0.00,VWS V14.01,2013-08-31 13:56:00,
2013-08-31 10:01:00,75.0,72.5,29.97,NNW,345,0.0,3.6,92,0.00,,---,0.00,VWS V14.01,2013-08-31 14:01:00,
2013-08-31 10:06:00,75.4,72.2,29.97,North,353,2.2,2.2,90,0.00,,---,0.00,VWS V14.01,2013-08-31 14:06:00,
2013-08-31 10:11:00,75.4,72.2,29.97,SSW,204,0.0,0.0,90,0.00,,---,0.00,VWS V14.01,2013-08-31 14:11:00,
2013-08-31 10:16:00,75.6,72.4,29.97,SW,234,0.0,0.0,90,0.00,,---,0.00,VWS V14.01,2013-08-31 14:16:00,
2013-08-31 10:21:00,75.9,72.4,29.97,WNW,284,2.2,3.6,89,0.00,,---,0.00,VWS V14.01,2013-08-31 14:21:00,
2013-08-31 10:26:00,75.9,72.4,29.97,NW,306,2.2,2.7,89,0.00,,---,0.00,VWS V14.01,2013-08-31 14:26:00,
2013-08-31 10:31:00,76.1,72.6,29.97,NNW,340,0.0,0.0,89,0.00,,---,0.00,VWS V14.01,2013-08-31 14:31:00,
2013-08-31 10:36:00,76.3,72.5,29.97,NW,325,4.0,4.0,88,0.00,,---,0.00,VWS V14.01,2013-08-31 14:36:00,
2013-08-31 10:41:00,76.5,72.7,29.97,NW,325,0.0,0.0,88,0.00,,---,0.00,VWS V14.01,2013-08-31 14:41:00,
2013-08-31 10:46:00,76.6,72.5,29.97,North,353,0.0,0.0,87,0.00,,---,0.00,VWS V14.01,2013-08-31 14:46:00,
2013-08-31 10:51:00,76.8,72.7,29.97,SW,219,0.0,0.0,87,0.00,,---,0.00,VWS V14.01,2013-08-31 14:51:00,
2013-08-31 10:56:00,77.0,72.5,29.97,NNW,330,0.0,0.0,86,0.00,,---,0.00,VWS V14.01,2013-08-31 14:56:00,
2013-08-31 11:01:00,77.0,72.2,29.97,South,191,0.0,0.0,85,0.00,,---,0.00,VWS V14.01,2013-08-31 15:01:00,
2013-08-31 11:06:00,77.2,72.3,29.97,South,191,0.0,0.0,85,0.00,,---,0.00,VWS V14.01,2013-08-31 15:06:00,
2013-08-31 11:11:00,77.4,72.5,29.97,SSE,164,0.0,0.0,85,0.00,,---,0.00,VWS V14.01,2013-08-31 15:11:00,
2013-08-31 11:16:00,77.4,72.2,29.97,North,2,0.0,0.0,84,0.00,,---,0.00,VWS V14.01,2013-08-31 15:16:00,
2013-08-31 11:21:00,77.7,72.5,29.97,WSW,240,0.0,0.0,84,0.00,,---,0.00,VWS V14.01,2013-08-31 15:21:00,
2013-08-31 11:26:00,77.9,73.0,29.97,SSW,209,3.6,3.6,85,0.00,,---,0.00,VWS V14.01,2013-08-31 15:26:00,
2013-08-31 11:31:00,77.7,72.8,29.97,NNW,344,0.0,0.0,85,0.00,,---,0.00,VWS V14.01,2013-08-31 15:31:00,
2013-08-31 11:36:00,77.9,73.0,29.97,South,184,0.0,0.0,85,0.00,,---,0.00,VWS V14.01,2013-08-31 15:36:00,
2013-08-31 11:41:00,77.9,72.7,29.97,West,271,0.0,0.0,84,0.00,,---,0.00,VWS V14.01,2013-08-31 15:41:00,
2013-08-31 11:46:00,78.1,73.2,29.97,SSW,202,3.1,3.1,85,0.00,,---,0.00,VWS V14.01,2013-08-31 15:46:00,
2013-08-31 11:51:00,78.4,73.2,29.97,SW,220,0.0,0.0,84,0.00,,---,0.00,VWS V14.01,2013-08-31 15:51:00,
2013-08-31 11:56:00,78.4,73.2,29.97,NNW,338,2.2,2.2,84,0.00,,---,0.00,VWS V14.01,2013-08-31 15:56:00,
2013-08-31 12:01:00,78.6,73.0,29.97,SE,140,0.0,0.0,83,0.00,,---,0.00,VWS V14.01,2013-08-31 16:01:00,
2013-08-31 12:06:00,78.8,73.2,29.97,NNW,336,0.0,0.0,83,0.00,,---,0.00,VWS V14.01,2013-08-31 16:06:00,
2013-08-31 12:11:00,79.0,73.4,29.97,SSW,207,0.0,0.0,83,0.00,,---,0.00,VWS V14.01,2013-08-31 16:11:00,
2013-08-31 12:16:00,78.8,73.2,29.97,SSW,193,0.0,0.0,83,0.00,,---,0.00,VWS V14.01,2013-08-31 16:16:00,
2013-08-31 12:21:00,78.8,73.2,29.97,SSW,193,0.0,0.0,83,0.00,,---,0.00,VWS V14.01,2013-08-31 16:21:00,
2013-08-31 12:26:00,78.8,73.2,29.97,East,101,0.0,0.0,83,0.00,,---,0.00,VWS V14.01,2013-08-31 16:26:00,
2013-08-31 12:31:00,79.2,73.2,29.97,South,176,0.0,0.0,82,0.00,,---,0.00,VWS V14.01,2013-08-31 16:31:00,
2013-08-31 12:36:00,79.7,73.7,29.97,SSW,209,0.0,0.0,82,0.00,,---,0.00,VWS V14.01,2013-08-31 16:36:00,
2013-08-31 12:41:00,80.1,73.7,29.97,SSW,212,0.0,0.0,81,0.00,,---,0.00,VWS V14.01,2013-08-31 16:41:00,
2013-08-31 12:46:00,80.1,73.7,29.97,South,187,3.1,3.1,81,0.00,,---,0.00,VWS V14.01,2013-08-31 16:46:00,
2013-08-31 12:51:00,80.4,74.1,29.97,NW,311,0.0,0.0,81,0.00,,---,0.00,VWS V14.01,2013-08-31 16:51:00,
2013-08-31 12:56:00,80.6,74.2,29.97,South,187,0.0,0.0,81,0.00,,---,0.00,VWS V14.01,2013-08-31 16:56:00,
2013-08-31 13:01:00,81.0,74.6,29.97,SSE,149,0.0,0.0,81,0.00,,---,0.00,VWS V14.01,2013-08-31 17:01:00,
2013-08-31 13:06:00,81.1,74.4,29.97,NW,324,2.2,3.6,80,0.00,,---,0.00,VWS V14.01,2013-08-31 17:06:00,
2013-08-31 13:11:00,81.3,74.6,29.97,SSE,165,0.0,0.0,80,0.00,,---,0.00,VWS V14.01,2013-08-31 17:11:00,
2013-08-31 13:16:00,81.7,74.5,29.94,North,7,0.0,0.0,79,0.00,,---,0.00,VWS V14.01,2013-08-31 17:16:00,
2013-08-31 13:21:00,81.7,74.5,29.94,NNW,332,0.0,0.0,79,0.00,,---,0.00,VWS V14.01,2013-08-31 17:21:00,
2013-08-31 13:26:00,81.7,74.5,29.94,West,273,0.0,0.0,79,0.00,,---,0.00,VWS V14.01,2013-08-31 17:26:00,
2013-08-31 13:31:00,81.5,74.4,29.94,SE,140,0.0,0.0,79,0.00,,---,0.00,VWS V14.01,2013-08-31 17:31:00,
2013-08-31 13:36:00,81.7,74.5,29.94,SE,140,2.7,2.7,79,0.00,,---,0.00,VWS V14.01,2013-08-31 17:36:00,
2013-08-31 13:41:00,81.9,74.7,29.94,SE,141,0.0,0.0,79,0.00,,---,0.00,VWS V14.01,2013-08-31 17:41:00,
2013-08-31 13:46:00,82.0,74.9,29.94,SSW,193,3.1,3.6,79,0.00,,---,0.00,VWS V14.01,2013-08-31 17:46:00,
2013-08-31 13:51:00,82.4,74.1,29.94,South,184,0.0,0.0,76,0.00,,---,0.00,VWS V14.01,2013-08-31 17:51:00,
2013-08-31 13:56:00,82.4,74.1,29.94,South,185,0.0,0.0,76,0.00,,---,0.00,VWS V14.01,2013-08-31 17:56:00,
2013-08-31 14:01:00,82.4,74.5,29.94,South,185,0.0,0.0,77,0.00,,---,0.00,VWS V14.01,2013-08-31 18:01:00,
2013-08-31 14:06:00,82.6,74.6,29.94,SW,214,0.0,3.6,77,0.00,,---,0.00,VWS V14.01,2013-08-31 18:06:00,
2013-08-31 14:11:00,82.9,74.6,29.94,SSE,159,2.2,3.1,76,0.00,,---,0.00,VWS V14.01,2013-08-31 18:11:00,
2013-08-31 14:16:00,82.8,74.4,29.94,South,176,2.2,2.2,76,0.00,,---,0.00,VWS V14.01,2013-08-31 18:16:00,
2013-08-31 14:21:00,82.9,74.2,29.94,SSW,203,2.2,2.2,75,0.00,,---,0.00,VWS V14.01,2013-08-31 18:21:00,
2013-08-31 14:26:00,83.1,74.4,29.94,South,185,0.0,0.0,75,0.00,,---,0.00,VWS V14.01,2013-08-31 18:26:00,
2013-08-31 14:31:00,83.3,74.6,29.94,SE,144,4.0,4.0,75,0.00,,---,0.00,VWS V14.01,2013-08-31 18:31:00,
2013-08-31 14:36:00,83.1,74.4,29.94,South,183,0.0,0.0,75,0.00,,---,0.00,VWS V14.01,2013-08-31 18:36:00,
2013-08-31 14:41:00,83.1,74.4,29.94,SW,225,2.7,4.0,75,0.00,,---,0.00,VWS V14.01,2013-08-31 18:41:00,
2013-08-31 14:46:00,83.3,74.6,29.94,South,177,0.0,3.1,75,0.00,,---,0.00,VWS V14.01,2013-08-31 18:46:00,
2013-08-31 14:51:00,83.7,74.5,29.94,South,182,3.6,4.9,74,0.00,,---,0.00,VWS V14.01,2013-08-31 18:51:00,
2013-08-31 14:56:00,83.8,74.7,29.94,SSE,158,2.2,2.2,74,0.00,,---,0.00,VWS V14.01,2013-08-31 18:56:00,
2013-08-31 15:01:00,84.0,74.4,29.94,South,181,0.0,0.0,73,0.00,,---,0.00,VWS V14.01,2013-08-31 19:01:00,
2013-08-31 15:06:00,84.0,74.4,29.94,South,181,0.0,0.0,73,0.00,,---,0.00,VWS V14.01,2013-08-31 19:06:00,
2013-08-31 15:11:00,84.0,74.4,29.94,SSW,196,0.0,0.0,73,0.00,,---,0.00,VWS V14.01,2013-08-31 19:11:00,
2013-08-31 15:16:00,84.0,74.8,29.91,ESE,110,2.2,4.0,74,0.00,,---,0.00,VWS V14.01,2013-08-31 19:16:00,
2013-08-31 15:21:00,84.2,74.2,29.91,South,182,3.1,4.0,72,0.00,,---,0.00,VWS V14.01,2013-08-31 19:21:00,
2013-08-31 15:26:00,83.8,73.8,29.91,South,172,0.0,0.0,72,0.00,,---,0.00,VWS V14.01,2013-08-31 19:26:00,
2013-08-31 15:31:00,83.7,74.1,29.91,WSW,244,0.0,0.0,73,0.00,,---,0.00,VWS V14.01,2013-08-31 19:31:00,
2013-08-31 15:36:00,83.5,73.9,29.91,South,176,0.0,2.2,73,0.00,,---,0.00,VWS V14.01,2013-08-31 19:36:00,
2013-08-31 15:41:00,83.8,73.8,29.91,South,189,3.6,3.6,72,0.00,,---,0.00,VWS V14.01,2013-08-31 19:41:00,
2013-08-31 15:46:00,83.5,73.5,29.91,South,189,0.0,0.0,72,0.00,,---,0.00,VWS V14.01,2013-08-31 19:46:00,
2013-08-31 15:51:00,82.9,73.0,29.91,South,189,0.0,0.0,72,0.00,,---,0.00,VWS V14.01,2013-08-31 19:51:00,
2013-08-31 15:56:00,82.4,72.9,29.91,South,189,0.0,0.0,73,0.00,,---,0.00,VWS V14.01,2013-08-31 19:56:00,
2013-08-31 16:01:00,82.0,72.9,29.91,South,189,0.0,0.0,74,0.00,,---,0.00,VWS V14.01,2013-08-31 20:01:00,
2013-08-31 16:06:00,81.9,72.8,29.91,South,189,0.0,0.0,74,0.00,,---,0.00,VWS V14.01,2013-08-31 20:06:00,
2013-08-31 16:11:00,81.5,72.8,29.91,South,189,0.0,0.0,75,0.00,,---,0.00,VWS V14.01,2013-08-31 20:11:00,
2013-08-31 16:16:00,81.0,73.1,29.91,South,189,0.0,0.0,77,0.00,,---,0.00,VWS V14.01,2013-08-31 20:16:00,
2013-08-31 16:21:00,80.2,73.1,29.91,South,189,0.0,0.0,79,0.00,,---,0.00,VWS V14.01,2013-08-31 20:21:00,
2013-08-31 16:26:00,79.9,72.8,29.91,South,189,0.0,0.0,79,0.00,,---,0.00,VWS V14.01,2013-08-31 20:26:00,
2013-08-31 16:31:00,79.9,73.2,29.94,NNW,331,0.0,0.0,80,0.00,,---,0.00,VWS V14.01,2013-08-31 20:31:00,
2013-08-31 16:36:00,79.3,71.9,29.94,West,266,4.5,9.6,78,0.00,,---,0.00,VWS V14.01,2013-08-31 20:36:00,
2013-08-31 16:41:00,77.9,68.9,29.94,NW,315,0.0,3.6,74,0.00,,---,0.00,VWS V14.01,2013-08-31 20:41:00,
2013-08-31 16:46:00,77.0,68.1,29.94,SSE,167,0.0,0.0,74,0.00,,---,0.00,VWS V14.01,2013-08-31 20:46:00,
2013-08-31 16:51:00,75.9,67.8,29.94,NE,49,0.0,0.0,76,0.00,,---,0.00,VWS V14.01,2013-08-31 20:51:00,
2013-08-31 16:56:00,74.5,67.6,29.94,SSW,212,0.0,2.7,79,0.00,,---,0.00,VWS V14.01,2013-08-31 20:56:00,
2013-08-31 17:01:00,73.4,67.2,29.94,SSW,200,0.0,0.0,81,0.00,,---,0.00,VWS V14.01,2013-08-31 21:01:00,
2013-08-31 17:06:00,72.9,67.4,29.94,WNW,300,0.0,6.3,83,0.00,,---,0.00,VWS V14.01,2013-08-31 21:06:00,
2013-08-31 17:11:00,72.3,67.6,29.94,NNW,328,0.0,0.0,85,0.00,,---,0.00,VWS V14.01,2013-08-31 21:11:00,
2013-08-31 17:16:00,71.8,67.7,29.94,NNW,328,0.0,0.0,87,0.00,,---,0.00,VWS V14.01,2013-08-31 21:16:00,
2013-08-31 17:21:00,71.4,67.7,29.94,NNW,327,0.0,0.0,88,0.04,,---,0.04,VWS V14.01,2013-08-31 21:21:00,
2013-08-31 17:26:00,71.1,67.7,29.94,NNW,328,0.0,0.0,89,0.04,,---,0.04,VWS V14.01,2013-08-31 21:26:00,
2013-08-31 17:31:00,70.5,67.1,29.94,NNW,328,0.0,0.0,89,0.04,,---,0.04,VWS V14.01,2013-08-31 21:31:00,
2013-08-31 17:36:00,70.3,67.3,29.94,NNW,327,0.0,0.0,90,0.04,,---,0.04,VWS V14.01,2013-08-31 21:36:00,
2013-08-31 17:41:00,70.2,67.1,29.94,NNW,328,0.0,0.0,90,0.04,,---,0.04,VWS V14.01,2013-08-31 21:41:00,
2013-08-31 17:46:00,69.8,66.7,29.91,NNW,328,0.0,0.0,90,0.04,,---,0.04,VWS V14.01,2013-08-31 21:46:00,
2013-08-31 17:51:00,69.6,66.9,29.91,NNW,327,0.0,0.0,91,0.04,,---,0.04,VWS V14.01,2013-08-31 21:51:00,
2013-08-31 17:56:00,69.6,66.9,29.91,NNW,328,0.0,0.0,91,0.04,,---,0.04,VWS V14.01,2013-08-31 21:56:00,
2013-08-31 18:01:00,69.6,66.9,29.91,NNW,328,0.0,0.0,91,0.04,,---,0.04,VWS V14.01,2013-08-31 22:01:00,
2013-08-31 18:06:00,69.6,67.2,29.91,NNW,328,0.0,0.0,92,0.04,,---,0.04,VWS V14.01,2013-08-31 22:06:00,
2013-08-31 18:11:00,69.8,67.1,29.91,NNW,328,0.0,0.0,91,0.12,,---,0.12,VWS V14.01,2013-08-31 22:11:00,
2013-08-31 18:16:00,69.8,67.4,29.91,NNW,328,0.0,0.0,92,0.12,,---,0.12,VWS V14.01,2013-08-31 22:16:00,
2013-08-31 18:21:00,69.8,67.4,29.91,NNW,328,0.0,0.0,92,0.08,,---,0.12,VWS V14.01,2013-08-31 22:21:00,
2013-08-31 18:26:00,70.0,67.6,29.91,NNW,328,0.0,0.0,92,0.08,,---,0.12,VWS V14.01,2013-08-31 22:26:00,
2013-08-31 18:31:00,70.0,67.9,29.91,NNW,328,0.0,0.0,93,0.08,,---,0.12,VWS V14.01,2013-08-31 22:31:00,
2013-08-31 18:36:00,70.2,68.1,29.91,NNW,328,0.0,0.0,93,0.08,,---,0.12,VWS V14.01,2013-08-31 22:36:00,
2013-08-31 18:41:00,70.3,68.2,29.91,NNW,327,0.0,0.0,93,0.08,,---,0.12,VWS V14.01,2013-08-31 22:41:00,
2013-08-31 18:46:00,70.3,68.2,29.94,NNW,327,0.0,0.0,93,0.08,,---,0.12,VWS V14.01,2013-08-31 22:46:00,
2013-08-31 18:51:00,70.3,68.5,29.94,NNW,328,0.0,0.0,94,0.08,,---,0.12,VWS V14.01,2013-08-31 22:51:00,
2013-08-31 18:56:00,70.5,68.7,29.94,NNW,327,0.0,0.0,94,0.08,,---,0.12,VWS V14.01,2013-08-31 22:56:00,
2013-08-31 19:01:00,70.7,68.9,29.91,NNW,327,0.0,0.0,94,0.08,,---,0.12,VWS V14.01,2013-08-31 23:01:00,
2013-08-31 19:06:00,70.7,68.9,29.91,NNW,328,0.0,0.0,94,0.08,,---,0.12,VWS V14.01,2013-08-31 23:06:00,
2013-08-31 19:11:00,70.7,68.9,29.91,NNW,328,0.0,0.0,94,0.00,,---,0.12,VWS V14.01,2013-08-31 23:11:00,
2013-08-31 19:16:00,70.7,68.9,29.94,NNW,327,0.0,0.0,94,0.00,,---,0.12,VWS V14.01,2013-08-31 23:16:00,
2013-08-31 19:21:00,70.7,69.2,29.94,NNW,327,0.0,0.0,95,0.00,,---,0.12,VWS V14.01,2013-08-31 23:21:00,
2013-08-31 19:26:00,70.7,69.2,29.94,NNW,328,0.0,0.0,95,0.00,,---,0.12,VWS V14.01,2013-08-31 23:26:00,
2013-08-31 19:31:00,70.7,69.2,29.94,NNW,328,0.0,0.0,95,0.00,,---,0.12,VWS V14.01,2013-08-31 23:31:00,
2013-08-31 19:36:00,70.7,69.2,29.94,NNW,328,0.0,0.0,95,0.00,,---,0.12,VWS V14.01,2013-08-31 23:36:00,
2013-08-31 19:41:00,70.9,69.4,29.94,NNW,327,0.0,0.0,95,0.00,,---,0.12,VWS V14.01,2013-08-31 23:41:00,
2013-08-31 19:46:00,70.9,69.4,29.94,NNW,327,0.0,0.0,95,0.00,,---,0.12,VWS V14.01,2013-08-31 23:46:00,
2013-08-31 19:51:00,70.9,69.4,29.94,NNW,328,0.0,0.0,95,0.00,,---,0.12,VWS V14.01,2013-08-31 23:51:00,
2013-08-31 19:56:00,70.9,69.4,29.94,NNW,328,0.0,0.0,95,0.00,,---,0.12,VWS V14.01,2013-08-31 23:56:00,
2013-08-31 20:01:00,70.9,69.4,29.94,NNW,328,0.0,0.0,95,0.00,,---,0.12,VWS V14.01,2013-09-01 00:01:00,
2013-08-31 20:05:00,70.9,69.4,29.94,South,191,0.0,0.0,95,0.00,,---,0.12,VWS V14.01,2013-09-01 00:05:00,
2013-08-31 20:11:00,70.7,69.2,29.94,South,190,0.0,0.0,95,0.00,,---,0.12,VWS V14.01,2013-09-01 00:11:00,
2013-08-31 20:16:00,70.7,69.2,29.94,South,190,0.0,0.0,95,0.00,,---,0.12,VWS V14.01,2013-09-01 00:16:00,
2013-08-31 20:21:00,70.7,69.2,29.94,South,191,0.0,0.0,95,0.00,,---,0.12,VWS V14.01,2013-09-01 00:21:00,
2013-08-31 20:25:00,70.7,69.2,29.94,South,191,0.0,0.0,95,0.00,,---,0.12,VWS V14.01,2013-09-01 00:25:00,
2013-08-31 20:30:00,70.5,69.0,29.94,South,190,0.0,0.0,95,0.00,,---,0.12,VWS V14.01,2013-09-01 00:30:00,
2013-08-31 20:35:00,70.5,69.0,29.94,South,190,0.0,0.0,95,0.00,,---,0.12,VWS V14.01,2013-09-01 00:35:00,
2013-08-31 20:40:00,70.3,68.8,29.94,South,191,0.0,0.0,95,0.00,,---,0.12,VWS V14.01,2013-09-01 00:40:00,
2013-08-31 20:45:00,70.3,68.8,29.94,South,191,0.0,0.0,95,0.00,,---,0.12,VWS V14.01,2013-09-01 00:45:00,
2013-08-31 20:50:00,70.3,68.8,29.94,South,191,0.0,0.0,95,0.00,,---,0.12,VWS V14.01,2013-09-01 00:50:00,
2013-08-31 20:55:00,70.3,68.8,29.94,South,191,0.0,0.0,95,0.00,,---,0.12,VWS V14.01,2013-09-01 00:55:00,
2013-08-31 21:00:00,70.3,68.8,29.94,South,190,0.0,0.0,95,0.00,,---,0.12,VWS V14.01,2013-09-01 01:00:00,
2013-08-31 21:05:00,70.2,68.7,29.94,South,191,0.0,0.0,95,0.00,,---,0.12,VWS V14.01,2013-09-01 01:05:00,
2013-08-31 21:10:00,70.2,68.7,29.94,South,190,0.0,0.0,95,0.00,,---,0.12,VWS V14.01,2013-09-01 01:10:00,
2013-08-31 21:15:00,70.2,68.7,29.94,South,191,0.0,0.0,95,0.00,,---,0.12,VWS V14.01,2013-09-01 01:15:00,
2013-08-31 21:20:00,70.2,68.7,29.94,South,191,0.0,0.0,95,0.00,,---,0.12,VWS V14.01,2013-09-01 01:20:00,
2013-08-31 21:25:00,70.0,68.8,29.94,South,190,0.0,0.0,96,0.00,,---,0.12,VWS V14.01,2013-09-01 01:25:00,
2013-08-31 21:30:00,70.0,68.8,29.94,South,190,0.0,0.0,96,0.00,,---,0.12,VWS V14.01,2013-09-01 01:30:00,
2013-08-31 21:35:00,70.0,68.8,29.94,South,190,0.0,0.0,96,0.00,,---,0.12,VWS V14.01,2013-09-01 01:35:00,
2013-08-31 21:40:00,70.0,68.8,29.94,South,190,0.0,0.0,96,0.00,,---,0.12,VWS V14.01,2013-09-01 01:40:00,
2013-08-31 21:45:00,70.0,68.8,29.94,South,190,0.0,0.0,96,0.00,,---,0.12,VWS V14.01,2013-09-01 01:45:00,
2013-08-31 21:50:00,70.0,68.8,29.94,South,190,0.0,0.0,96,0.00,,---,0.12,VWS V14.01,2013-09-01 01:50:00,
2013-08-31 21:55:00,69.8,68.6,29.94,South,190,0.0,0.0,96,0.00,,---,0.12,VWS V14.01,2013-09-01 01:55:00,
2013-08-31 22:00:00,69.8,68.6,29.94,South,191,0.0,0.0,96,0.00,,---,0.12,VWS V14.01,2013-09-01 02:00:00,
2013-08-31 22:05:00,69.6,68.4,29.94,South,190,0.0,0.0,96,0.00,,---,0.12,VWS V14.01,2013-09-01 02:05:00,
2013-08-31 22:10:00,69.6,68.4,29.94,South,190,0.0,0.0,96,0.00,,---,0.12,VWS V14.01,2013-09-01 02:10:00,
2013-08-31 22:15:00,69.6,68.4,29.94,South,190,0.0,0.0,96,0.00,,---,0.12,VWS V14.01,2013-09-01 02:15:00,
2013-08-31 22:20:00,69.6,68.4,29.94,South,190,0.0,0.0,96,0.00,,---,0.12,VWS V14.01,2013-09-01 02:20:00,
2013-08-31 22:25:00,69.4,68.2,29.94,South,191,0.0,0.0,96,0.00,,---,0.12,VWS V14.01,2013-09-01 02:25:00,
2013-08-31 22:30:00,69.4,68.2,29.94,South,190,0.0,0.0,96,0.00,,---,0.12,VWS V14.01,2013-09-01 02:30:00,
2013-08-31 22:35:00,69.4,68.2,29.94,South,190,0.0,0.0,96,0.00,,---,0.12,VWS V14.01,2013-09-01 02:35:00,
2013-08-31 22:40:00,69.4,68.2,29.94,South,191,0.0,0.0,96,0.00,,---,0.12,VWS V14.01,2013-09-01 02:40:00,
2013-08-31 22:45:00,69.4,68.2,29.94,South,190,0.0,0.0,96,0.00,,---,0.12,VWS V14.01,2013-09-01 02:45:00,
2013-08-31 22:50:00,69.4,68.2,29.94,South,190,0.0,0.0,96,0.00,,---,0.12,VWS V14.01,2013-09-01 02:50:00,
2013-08-31 22:55:00,69.4,68.2,29.94,South,190,0.0,0.0,96,0.00,,---,0.12,VWS V14.01,2013-09-01 02:55:00,
2013-08-31 23:00:00,69.4,68.2,29.94,South,190,0.0,0.0,96,0.00,,---,0.12,VWS V14.01,2013-09-01 03:00:00,
2013-08-31 23:05:00,69.3,68.1,29.94,South,190,0.0,0.0,96,0.00,,---,0.12,VWS V14.01,2013-09-01 03:05:00,
2013-08-31 23:10:00,69.3,68.1,29.94,South,190,0.0,0.0,96,0.00,,---,0.12,VWS V14.01,2013-09-01 03:10:00,
2013-08-31 23:15:00,69.3,68.1,29.94,South,190,0.0,0.0,96,0.00,,---,0.12,VWS V14.01,2013-09-01 03:15:00,
2013-08-31 23:20:00,69.3,68.1,29.94,South,190,0.0,0.0,96,0.00,,---,0.12,VWS V14.01,2013-09-01 03:20:00,
2013-08-31 23:25:00,69.3,68.1,29.94,South,190,0.0,0.0,96,0.00,,---,0.12,VWS V14.01,2013-09-01 03:25:00,
2013-08-31 23:30:00,69.3,68.1,29.91,South,191,0.0,0.0,96,0.00,,---,0.12,VWS V14.01,2013-09-01 03:30:00,
2013-08-31 23:35:00,69.3,68.1,29.91,South,190,0.0,0.0,96,0.00,,---,0.12,VWS V14.01,2013-09-01 03:35:00,
2013-08-31 23:40:00,69.1,67.9,29.91,South,190,0.0,0.0,96,0.00,,---,0.12,VWS V14.01,2013-09-01 03:40:00,
2013-08-31 23:45:00,69.1,67.9,29.91,South,190,0.0,0.0,96,0.00,,---,0.12,VWS V14.01,2013-09-01 03:45:00,
2013-08-31 23:50:00,69.1,67.9,29.91,South,190,0.0,0.0,96,0.00,,---,0.12,VWS V14.01,2013-09-01 03:50:00,
2013-08-31 23:55:00,68.9,67.7,29.91,South,191,0.0,0.0,96,0.00,,---,0.12,VWS V14.01,2013-09-01 03:55:00,